Regional Weather Roundup
Issued by NWS Little Rock, AR

Home | Current Version | Previous Version | Text Only | Print | Product List | Glossary Off
Versions: 1 2 3 4 5 6 7 8 9 10 11 12 13 14 15 16 17 18 19 20 21 22 23 24 25 26 27 28 29 30 31 32 33 34 35 36 37 38 39 40 41 42 43 44 45 46 47 48 49 50

000
ASUS44 KLZK 300105
RWRLZK

WEATHER ROUNDUP FOR ARKANSAS
NATIONAL WEATHER SERVICE LITTLE ROCK AR
800 PM CDT TUE JUL 29 2014

NOTE: "FAIR" INDICATES FEW OR NO CLOUDS BELOW 12,000 FEET WITH NO
SIGNIFICANT WEATHER AND/OR OBSTRUCTIONS TO VISIBILITY.

ARZ001-003-010-029-300200-
NORTHWEST ARKANSAS

CITY           SKY/WX    TMP DP  RH WIND       PRES   REMARKS
FAYETTEVILLE   PTCLDY    76  60  57 CALM      30.10F
FORT SMITH     PTCLDY    83  66  56 SE3       30.05F HX  85
HARRISON       CLOUDY    74  63  68 S3        30.10F
BENTONVILLE    PTCLDY    75  61  60 CALM      30.11F
ROGERS         PTCLDY    76  62  62 CALM      30.11F
SILOAM SPGS    PTCLDY    75  59  57 CALM      30.11F
HIGHFILL       PTCLDY    76  62  62 NW3       30.10F
SPRINGDALE     PTCLDY    77  61  57 N6        30.12F
$$

ARZ004-005-016-300200-
NORTH CENTRAL ARKANSAS

CITY           SKY/WX    TMP DP  RH WIND       PRES   REMARKS
BATESVILLE     CLEAR     77  61  57 SE5       30.08S
FLIPPIN        MOCLDY    79  59  50 CALM      30.08F
MTN HOME       MOCLDY    76  59  55 SE3       30.08S
$$

ARZ040-041-300200-
WEST CENTRAL ARKANSAS

CITY           SKY/WX    TMP DP  RH WIND       PRES   REMARKS
MENA           PTCLDY    81  70  69 CALM      30.10F
MOUNT IDA      PTCLDY    75  68  78 CALM      30.08S
$$

ARZ009-017-025-026-028-300200-
NORTHEAST ARKANSAS

CITY           SKY/WX    TMP DP  RH WIND       PRES   REMARKS
CORNING        FAIR      73  63  68 SE6       30.08F
JONESBORO      CLEAR     73  59  61 E5        30.08F
NEWPORT        CLEAR     75  62  64 E14       30.09F
WALNUT RIDGE   CLEAR     73  61  64 SE5       30.08S
BLYTHEVILLE    CLEAR     72  56  57 E3        30.09F
$$

ARZ022-023-033-042-044-300200-
CENTRAL ARKANSAS

CITY           SKY/WX    TMP DP  RH WIND       PRES   REMARKS
LITTLE ROCK    PTCLDY    78  59  51 E6        30.08F
N LITTLE ROCK  PTCLDY    75  65  71 CALM      30.08F
JACKSONVILLE   CLEAR     77  64  65 SE2       30.08F
SEARCY         CLEAR     75  62  64 VRB5      30.09S
HOT SPRINGS    CLEAR     79  64  60 E3        30.09S
RUSSELLVILLE   PTCLDY    75  68  78 CALM      30.07F
CLINTON        FAIR      75  66  73 CALM      30.09S
$$

ARZ036-300200-
EAST ARKANSAS

CITY           SKY/WX    TMP DP  RH WIND       PRES   REMARKS
WEST MEMPHIS   CLEAR     73  57  57 NE6       30.08F
$$

ARZ050-053-066-070-073-300200-
SOUTHWEST ARKANSAS

CITY           SKY/WX    TMP DP  RH WIND       PRES   REMARKS
ARKADELPHIA    FAIR      80  71  74 CALM      30.08S
CAMDEN         CLEAR     79  63  57 E3        30.08S
TEXARKANA      CLEAR     82  67  60 CALM      30.07F
EL DORADO      CLEAR     78  67  68 N5        30.08S
DE QUEEN       PTCLDY    83  70  64 CALM      30.05S HX  87
$$

ARZ056-057-069-300200-
SOUTHEAST ARKANSAS

CITY           SKY/WX    TMP DP  RH WIND       PRES   REMARKS
PINE BLUFF     CLEAR     75  62  64 E3        30.09S
STUTTGART      CLEAR     79  59  50 E7        30.10S
MONTICELLO     CLEAR     76  62  62 CALM      30.09S

$$




USA.gov is the U.S. government's official web portal to all federal, state and local government web resources and services.